Tracking 28790 objects as of 19-Apr-2024
HD Live streaming from Space Station
objects crossing your sky now

COSMOS 1932

Track COSMOS 1932 now!
10-day predictions
COSMOS 1932 is classified as:


NORAD ID: 18957
Int'l Code: 1988-019A
Perigee: 945.0 km
Apogee: 998.9 km
Inclination: 65.0 °
Period: 104.4 minutes
Semi major axis: 7342 km
RCS: 2.9305 m2 (large)
Launch date: March 14, 1988
Source: Commonwealth of Independent States (former USSR) (CIS)
Launch site: TYURATAM MISSILE AND SPACE COMPLEX (TTMTR)
Your satellite tracking list
Your tracking list is empty




NASA's NSSDC Master Catalog

Two Line Element Set (TLE):
1 18957U 88019A   24109.92265988 -.00000020  00000-0  64612-4 0  9997
2 18957  65.0471 359.7399 0036719 158.7743 201.4848 13.79747222820259
Source of the keplerian elements: AFSPC